Location: Central Falls
(41.8900°N, 71.3929°W)
Time: 11:58:10
(UTC+00:00)

Altair - Pass Details

Date: 12 December 2023
Orbit: 1501 x 1682 km, 47.2° (Epoch: 20 February)

Event Time Altitude Azimuth Distance (km) Brightness Sun altitude
Rises 12:06:18 0° 251° (WSW) 4,872 9.7 -0.4°
Reaches altitude 10° 12:09:29 10° 253° (WSW) 3,866 9.2 0.1°
Maximum altitude 12:19:21 78° 340° (NNW) 1,620 7.7 1.6°
Drops below altitude 10° 12:28:52 10° 67° (ENE) 3,727 10.0 3.1°
Sets 12:31:53 0° 69° (ENE) 4,691 10.6 3.5°
